Medicine Lodge, KS

9:32 PM CST on December 10, 2016 (GMT -0600)
Medicine Lodge

Weather History for KP28 - November, 2013

Change the Weather History Date:

Saturday, November 23, 2013

  Actual Average Record
Temperature  
Mean Temperature 30 °F 42 °F  
Max Temperature 36 °F 54 °F 78 °F (1904)
Min Temperature 24 °F 29 °F 8 °F (1921)
Degree Days  
Heating Degree Days 35 23  
Month to date heating degree days 427 413  
Since 1 July heating degree days 714 682  
Cooling Degree Days 0 0  
Month to date cooling degree days 0 0  
Year to date cooling degree days 1786 1769  
Moisture  
Dew Point 17 °F    
Average Humidity 62    
Maximum Humidity 74    
Minimum Humidity 49    
Precipitation  
Precipitation 0.00 in 0.02 in 1.03 in (1905)
Month to date precipitation 0.67 0.78  
Year to date precipitation 25.23 26.07  
Snow  
Snow 0.00 in 0.00 in - ()
Month to date snowfall 0.0 0.1  
Since 1 July snowfall 0.0 0.1  
Since 1 September snowfall 0.0 0.1  
Snow Depth 0.00 in    
Sea Level Pressure  
Sea Level Pressure 30.73 in    
Wind  
Wind Speed 10 mph (NNE)    
Max Wind Speed 20 mph    
Max Gust Speed 24 mph    
T = Trace of Precipitation, MM = Missing Value Source: NWS Daily Summary

Daily Weather History Graph

Daily Weather History Graph

Search for Another Location

Airport or City:

Trip Planner

Search our weather history database for the weather conditions in past years. The results will help you decide how hot, cold, wet, or windy it might be!

Date:

Astronomy

Nov. 23, 2013 Rise Set
Actual Time 7:21 AM CST 5:19 PM CST
Civil Twilight 6:53 AM CST 5:47 PM CST
Nautical Twilight 6:21 AM CST 6:19 PM CST
Astronomical Twilight 5:50 AM CST 6:50 PM CST
Moon 10:46 PM CST (11/23) 11:42 AM CST (11/23)
Length of Visible Light 10h 53m
Length of Day
9h 57m
Waning Gibbous, 69% of the Moon is Illuminated
Nov 23
Waning Gibbous
Nov 25
Last Quarter
Dec 2
New
Dec 9
First Quarter
Dec 17
Full

Hourly Weather History & Observations

Time (CST) Temp. Windchill Dew Point Humidity Pressure Visibility Wind Dir Wind Speed Gust Speed Precip Events Conditions
12:56 AM 28.9 °F 21.9 °F 16.0 °F 58% 30.68 in - North 6.9 mph - N/A   Unknown
1:56 AM 28.9 °F 25.2 °F 15.1 °F 56% 30.67 in - North 3.5 mph - N/A   Unknown
2:56 AM 28.9 °F 21.9 °F 16.0 °F 58% 30.69 in - NNW 6.9 mph - N/A   Unknown
3:56 AM 30.0 °F 22.4 °F 14.0 °F 51% 30.68 in - North 8.1 mph - N/A   Unknown
4:56 AM 30.0 °F 23.2 °F 16.0 °F 56% 30.69 in - North 6.9 mph - N/A   Unknown
5:56 AM 30.0 °F 23.2 °F 16.0 °F 56% 30.70 in - NNW 6.9 mph - N/A   Unknown
6:56 AM 30.0 °F 24.1 °F 14.0 °F 51% 30.71 in - North 5.8 mph - N/A   Unknown
7:56 AM 30.9 °F 25.2 °F 15.1 °F 52% 30.73 in - North 5.8 mph - N/A   Unknown
8:56 AM 30.9 °F 22.2 °F 18.0 °F 59% 30.75 in - North 10.4 mph - N/A   Unknown
9:56 AM 30.9 °F 19.8 °F 19.0 °F 61% 30.77 in - NNE 16.1 mph - N/A   Unknown
10:56 AM 32.0 °F 21.6 °F 18.0 °F 56% 30.78 in - NNE 15.0 mph - N/A   Unknown
11:56 AM 33.1 °F 23.9 °F 18.0 °F 54% 30.76 in - NNE 12.7 mph 21.9 mph N/A   Unknown
12:56 PM 34.0 °F 23.8 °F 19.9 °F 56% 30.75 in - NNE 16.1 mph - N/A   Unknown
1:56 PM 35.1 °F 25.5 °F 19.9 °F 54% 30.74 in - NE 15.0 mph 23.0 mph N/A   Unknown
2:56 PM 34.0 °F 23.4 °F 19.9 °F 56% 30.73 in - NNE 17.3 mph - N/A   Unknown
3:56 PM 33.1 °F 24.9 °F 19.0 °F 56% 30.74 in - NNE 10.4 mph - N/A   Unknown
4:56 PM 30.9 °F 21.7 °F 18.0 °F 59% 30.74 in - NE 11.5 mph - N/A   Unknown
5:56 PM 30.0 °F 24.1 °F 18.0 °F 61% 30.76 in - NE 5.8 mph - N/A   Unknown
6:56 PM 28.0 °F 18.6 °F 18.0 °F 66% 30.76 in - NNE 10.4 mph - N/A   Unknown
7:56 PM 28.0 °F 20.0 °F 16.0 °F 61% 30.75 in - NE 8.1 mph - N/A   Unknown
8:56 PM 26.1 °F 16.8 °F 17.1 °F 69% 30.74 in - NE 9.2 mph - N/A   Unknown
9:56 PM 25.0 °F 17.1 °F 17.1 °F 72% 30.73 in - NE 6.9 mph - N/A   Unknown
10:56 PM 25.0 °F 16.3 °F 15.1 °F 66% 30.74 in - NE 8.1 mph - N/A   Unknown
11:56 PM 24.1 °F 16.0 °F 12.9 °F 62% 30.73 in - NE 6.9 mph - N/A   Unknown